{"data":{"norad_id":33053,"intl_designator":"2008-029A","name":"FGRST (GLAST)","alt_names":[],"object_type":"PAYLOAD","status":"INACTIVE","operator":null,"country":"US","launch_date":"2008-06-11","launch_site_code":"AFETR","launch_vehicle":null,"mission":null,"orbit_class":"UNKNOWN","rcs_meters":4.9326,"size_class":null,"mass_kg":null,"dimensions":null,"purposes":["science"],"wikipedia_slug":null,"has_3d_model":false,"image_url":null,"decayed_at":null,"tle_current":{"epoch":"2026-05-24T22:00:59.018400Z","epoch_age_seconds":76058,"freshness":"FRESH","line1":"1 33053U 08029A   26144.91734975  .00003147  00000+0  11338-3 0  9998","line2":"2 33053  25.5840   6.0379 0008619  53.4302 306.7028 15.23796704992286","mean_motion":15.23796704,"eccentricity":0.0008619,"inclination_deg":25.584,"raan_deg":6.0379,"arg_perigee_deg":53.4302,"mean_anomaly_deg":306.7028,"bstar":0.00011338,"rev_number":99228,"period_min":94.500795035189,"perigee_km":488.47763711974,"apogee_km":500.32451825806,"semimajor_km":6872.5380776889,"source":"CELESTRAK","updated_at":"2026-05-25T13:38:24.639586Z"}}}